Wind_Speed
27 27 25 24 24 24 25 26 26 28 30 31 31 31 31 30 30 30 30 28 27 26 26 26 27 28 29 31 33 35 36 37 37 36 36 36 36 36 36 36 36 35 35 35 36 37 38 38 38 38 38 38 37 35 35 36 37 40 43 46 50 53 57 60 63 65 65 66 67 68 67 63 58 53 52 51 52 52 53 53 54 55 57 58 60 61
26 26 24 23 23 24 26 26 27 28 29 29 29 28 27 27 26 25 24 22 22 23 24 25 27 28 29 31 33 35 36 37 38 37 36 36 36 37 37 37 36 35 34 35 35 35 35 35 35 36 37 38 38 36 35 35 36 38 41 44 47 51 54 58 60 62 63 64 64 66 67 65 60 56 53 52 52 53 54 54 55 56 57 59 59 59
25 25 26 26 26 27 29 31 32 32 32 32 31 31 30 29 28 26 25 24 24 25 27 28 28 29 31 32 34 35 37 39 39 38 37 36 36 37 37 37 36 35 34 34 34 34 33 32 33 34 36 38 39 37 35 35 35 37 40 43 46 49 52 56 58 59 60 60 61 62 63 63 61 57 54 53 53 54 56 57 57 57 58 59 58 56
25 25 26 26 26 28 30 32 33 34 35 35 35 36 36 34 33 32 31 31 32 32 33 33 33 33 34 35 36 37 39 40 40 38 37 36 36 37 37 37 36 35 34 34 33 33 33 32 32 33 36 38 39 38 36 35 35 37 39 41 44 48 51 54 55 55 55 55 56 57 59 60 60 57 55 53 54 55 57 58 57 57 58 59 57 54
25 24 24 23 24 25 27 28 29 30 31 33 35 36 36 36 36 35 36 36 37 37 38 38 38 38 37 38 38 39 40 41 40 38 36 36 36 37 37 37 37 36 35 35 35 35 34 34 33 34 36 38 39 38 37 36 36 37 39 41 43 45 48 50 50 50 50 52 54 56 58 59 58 56 54 53 54 55 56 57 57 57 57 58 57 54
26 24 22 20 20 21 22 23 24 25 27 29 32 34 35 36 37 38 38 39 40 40 41 41 41 40 39 39 39 39 40 40 39 38 36 36 37 37 37 38 38 37 37 37 37 37 37 36 36 36 36 38 39 38 37 36 37 38 40 41 42 44 45 46 47 48 49 52 55 57 58 58 57 55 53 53 53 54 55 55 55 56 57 58 56 53
25 24 22 22 23 23 23 25 27 28 28 28 30 32 35 37 38 39 40 41 41 42 42 42 42 41 40 39 39 39 39 40 39 38 37 37 38 38 38 38 38 38 38 38 38 39 38 38 38 38 38 38 38 38 37 37 37 38 39 41 43 44 45 46 46 48 50 53 55 56 57 57 56 55 53 53 54 54 53 53 54 55 57 58 56 52
23 24 24 24 24 25 25 27 28 28 28 27 28 29 32 33 34 37 39 40 40 40 40 40 40 40 39 38 38 37 38 39 39 39 38 38 38 38 38 39 39 39 39 39 39 39 39 39 39 39 39 39 38 37 37 37 37 37 38 39 42 44 46 47 49 50 51 52 52 53 54 55 56 56 55 56 56 55 53 52 53 54 57 57 55 51
23 23 24 24 24 23 24 26 28 28 28 27 27 27 27 27 28 31 33 34 36 37 36 35 36 37 38 38 36 36 37 38 39 39 38 38 38 37 38 38 39 39 39 39 38 38 38 39 40 40 40 38 37 36 36 37 37 37 37 37 39 41 45 48 51 52 51 50 51 51 52 53 55 56 56 58 57 55 53 52 52 54 57 57 54 51
24 24 24 25 25 23 22 24 26 28 26 28 29 28 27 25 23 24 25 27 29 31 32 32 32 34 36 36 35 34 35 36 36 36 35 34 34 33 34 35 36 37 38 37 37 36 36 38 39 39 38 37 35 34 35 37 38 38 36 36 37 40 43 47 51 53 51 50 51 52 53 53 53 55 56 57 56 55 53 52 53 55 57 56 53 51
24 24 23 23 24 24 24 24 26 27 27 28 29 29 28 25 22 19 18 21 24 26 27 29 30 31 32 33 34 34 34 34 34 33 31 30 29 29 30 30 31 32 34 35 35 34 34 35 37 37 36 34 33 33 35 37 39 39 37 36 37 39 42 46 50 51 50 50 50 51 52 52 52 53 54 55 55 54 53 53 54 56 58 56 53 52
21 21 21 22 21 22 23 24 25 26 26 24 21 20 20 22 21 18 16 18 21 23 24 26 28 30 31 32 34 35 36 35 34 32 30 29 28 27 27 27 28 28 29 31 31 31 30 32 34 34 33 32 31 32 34 37 39 40 38 37 37 39 42 45 48 49 48 48 49 49 49 49 50 51 53 54 54 54 55 56 57 58 58 56 55 54
20 20 20 21 20 20 21 21 21 21 20 18 14 11 13 17 19 19 18 18 20 23 24 24 26 29 30 30 31 33 34 33 32 30 28 26 26 25 24 24 24 25 25 25 25 25 25 27 30 31 31 29 29 31 33 37 40 41 39 39 39 40 43 45 46 47 46 47 47 46 45 45 47 49 52 53 53 53 55 56 58 59 58 57 55 54
18 19 18 17 18 19 19 19 18 16 16 16 15 15 18 19 20 19 18 18 21 23 23 22 23 24 25 25 26 28 28 27 26 24 21 20 19 19 18 18 18 18 18 17 17 18 20 22 25 28 28 28 28 29 32 36 40 41 40 40 41 43 44 45 45 45 45 45 45 44 44 44 45 47 50 52 53 53 53 54 55 57 57 56 55 54
15 14 11 10 12 15 18 18 17 17 17 18 19 20 21 22 21 19 17 16 18 20 19 18 18 20 21 20 20 21 21 20 18 16 14 12 12 12 12 11 11 12 12 12 12 13 15 17 20 23 26 26 27 29 31 35 38 40 41 42 43 45 45 45 45 44 43 43 43 43 44 44 45 47 50 52 53 53 53 53 53 53 55 55 55 54
16 13 8 8 10 14 19 19 18 18 18 19 19 19 19 18 18 18 16 16 15 14 12 10 9 10 13 16 17 16 14 13 11 10 7 5 6 7 6 6 8 10 11 11 12 12 12 14 16 18 21 24 27 28 30 33 36 38 39 41 43 45 46 46 45 44 43 43 43 43 44 45 46 48 50 52 53 53 52 51 51 51 51 52 52 52
18 15 11 9 10 15 21 22 21 20 20 20 21 21 20 18 17 16 16 15 12 10 8 5 3 3 4 9 11 12 12 9 7 5 3 3 4 4 5 7 10 13 13 14 14 14 13 14 14 15 16 20 24 27 30 32 34 36 37 40 42 44 45 45 44 44 43 43 43 44 45 46 46 47 49 50 52 53 52 50 49 47 47 47 48 48
18 17 16 12 13 17 22 22 21 21 21 21 22 22 22 20 19 18 16 14 12 9 8 6 4 3 2 2 5 8 11 10 7 5 4 7 8 8 10 11 11 12 14 16 17 18 17 16 15 14 12 14 19 24 28 31 33 34 36 38 40 41 42 43 43 43 44 43 43 44 46 46 46 47 47 48 50 51 52 51 49 47 45 45 45 45
19 20 20 18 19 21 22 21 21 20 20 19 20 20 20 20 20 18 17 16 14 12 10 6 5 4 3 4 6 8 12 11 9 7 6 8 9 11 13 13 12 12 14 17 20 21 20 19 18 15 11 9 13 19 24 28 31 33 35 36 38 39 40 41 42 43 44 44 44 44 45 45 45 45 45 46 47 48 48 49 49 47 46 46 45 45
21 22 23 23 23 22 22 23 23 21 19 19 19 18 17 17 17 17 17 16 16 16 14 11 9 8 7 7 8 11 14 13 11 8 8 9 10 11 13 12 10 11 13 18 21 22 22 23 23 21 16 9 4 10 18 24 29 32 34 36 37 38 39 39 41 42 44 43 43 43 43 43 43 44 44 43 43 42 42 43 45 46 45 46 46 45
22 24 26 27 24 22 22 24 24 22 20 20 19 19 19 17 15 15 15 15 15 15 14 13 12 12 10 9 11 13 15 13 9 6 6 7 8 10 12 11 9 10 12 17 22 24 25 26 27 27 24 18 9 0 9 18 24 29 32 34 36 36 37 37 38 40 41 41 40 40 40 39 39 39 39 38 38 37 37 37 38 40 42 42 42 42
22 23 25 25 24 23 23 24 24 24 23 22 20 19 19 16 14 13 13 14 14 14 15 15 14 13 13 14 15 16 16 14 9 5 5 3 5 8 11 11 9 9 12 16 20 23 26 28 30 31 30 27 21 13 5 8 16 23 27 31 33 33 34 34 34 35 35 35 34 34 33 33 33 33 32 32 31 30 30 30 31 32 32 33 33 34
29 28 26 25 24 23 23 24 24 24 24 24 23 23 24 21 18 16 16 16 16 16 16 14 13 13 14 16 18 17 17 14 10 7 5 3 3 6 11 11 9 9 11 15 18 21 25 30 32 34 34 33 30 26 19 13 11 15 20 24 27 29 29 30 30 30 29 29 29 29 29 29 29 28 28 27 25 24 23 23 23 23 24 24 24 25
34 33 32 30 28 27 27 27 27 26 26 25 26 28 29 29 27 25 23 21 19 17 15 13 11 11 12 16 17 17 16 14 10 7 4 3 4 6 9 10 9 8 11 15 17 21 25 30 33 35 35 35 34 32 29 26 22 19 20 22 24 25 27 27 27 26 26 26 27 27 27 27 27 27 26 26 25 25 24 24 24 24 24 24 24 24
34 33 33 32 31 31 31 31 31 31 29 28 29 30 32 32 32 30 27 22 17 15 14 12 9 7 9 11 12 13 15 13 10 7 6 5 7 8 10 11 9 7 10 14 18 21 25 29 33 35 36 36 35 34 33 31 30 29 28 28 28 29 29 29 28 28 27 27 28 28 29 29 30 30 30 31 31 31 32 32 31 31 32 33 33 33
35 34 33 33 34 35 36 36 36 35 35 32 31 31 31 31 30 26 21 17 15 15 14 9 5 5 7 9 9 10 13 13 11 9 9 8 9 9 10 12 12 11 11 15 18 21 24 27 30 33 34 35 34 34 33 33 32 32 33 34 36 36 37 36 36 35 34 34 34 34 35 35 36 37 38 38 39 39 40 40 40 41 41 41 41 40
38 37 37 37 37 38 39 39 39 39 39 37 36 34 31 28 23 18 15 15 16 16 12 6 4 4 5 6 7 9 13 13 11 10 12 13 11 9 11 13 14 14 14 15 18 21 24 26 28 30 31 32 32 33 33 33 33 33 33 35 37 40 41 42 42 41 41 40 40 41 41 41 42 43 44 44 45 45 45 46 46 46 46 46 45 44
41 41 40 40 40 41 41 41 41 41 41 41 40 38 34 28 21 15 13 15 17 16 11 7 5 4 4 3 5 9 13 13 12 12 14 14 12 10 13 16 16 15 15 15 18 23 26 27 27 27 27 28 29 30 30 31 32 33 33 35 36 38 40 42 42 42 42 42 43 43 44 44 45 47 48 48 49 49 49 49 49 49 49 48 47 46
41 42 43 43 44 44 44 44 44 44 44 43 43 41 37 31 24 19 18 18 18 15 10 7 6 5 4 4 6 8 10 13 14 15 14 13 12 12 17 17 16 16 16 13 15 20 24 26 26 26 25 26 27 28 28 28 30 31 32 33 35 37 39 40 40 40 40 41 41 42 42 43 44 46 47 49 50 51 52 52 52 51 50 49 47 45
37 39 40 42 44 45 45 46 45 45 45 44 44 42 38 34 30 26 24 22 20 16 11 8 7 7 6 6 5 4 6 12 16 17 15 12 10 12 17 16 15 13 12 9 8 9 13 19 23 25 25 26 27 27 27 28 28 28 29 31 33 35 37 38 39 39 39 39 39 39 39 39 40 41 43 45 48 49 51 52 52 51 50 48 46 44
32 34 36 39 41 43 44 44 44 43 43 42 41 39 35 33 32 29 26 24 22 19 15 12 11 11 11 7 4 3 3 13 17 17 15 13 12 13 16 13 10 8 6 6 4 2 3 7 14 21 25 26 26 27 27 27 27 27 27 28 30 32 34 36 38 38 38 37 37 37 37 37 38 39 41 43 45 47 50 51 51 51 50 48 46 43
32 33 34 35 37 38 38 38 38 37 36 35 33 31 30 30 30 28 26 25 24 22 20 17 15 15 16 10 6 5 5 15 19 17 14 12 12 13 14 10 6 4 3 6 6 5 4 2 5 14 23 25 25 26 26 26 26 26 26 26 27 28 30 32 35 36 36 36 36 36 37 37 37 38 39 41 43 46 48 49 50 50 50 48 46 44
28 28 28 28 28 28 28 28 28 27 26 25 25 25 25 26 25 24 24 24 24 23 21 19 18 17 16 12 8 7 9 17 20 17 14 12 11 11 10 8 7 7 9 10 11 10 8 6 6 10 18 23 25 25 25 25 26 26 26 26 26 26 27 29 31 33 34 35 35 35 35 36 36 37 38 40 42 44 45 46 47 48 48 47 46 44
19 19 19 18 18 17 17 18 18 19 19 20 21 21 21 21 21 20 20 21 22 22 20 20 20 18 15 10 8 8 11 17 18 16 13 13 12 10 10 9 9 11 13 13 14 15 13 12 11 11 12 18 23 25 25 26 26 27 27 27 26 25 26 28 30 32 33 34 35 35 34 34 34 35 36 37 39 41 42 43 43 44 45 45 45 43
14 14 14 14 14 14 14 14 15 16 17 18 18 18 18 18 18 18 18 19 19 19 18 19 20 19 17 13 10 9 12 16 17 15 13 14 13 11 11 10 12 14 15 15 14 13 10 12 13 12 10 12 17 22 25 25 26 26 27 28 27 26 26 28 30 32 34 35 35 35 35 35 35 35 35 36 37 38 39 40 41 41 41 42 42 42
12 11 11 12 13 13 13 13 13 14 15 16 17 17 18 18 18 18 18 18 18 17 17 17 17 17 17 16 15 15 16 18 17 15 14 15 14 12 10 10 13 16 16 16 16 13 10 10 13 15 13 10 9 13 20 24 26 27 27 27 27 26 26 27 29 31 33 35 35 35 36 36 36 36 35 35 36 37 37 38 38 38 38 38 38 39
10 9 10 11 11 12 12 13 13 14 15 17 17 18 18 19 19 19 19 19 19 18 17 16 16 16 16 18 20 20 20 19 17 15 15 16 16 14 12 12 14 16 17 17 18 17 15 11 10 11 11 9 6 7 13 21 25 26 26 26 26 25 25 26 28 30 32 33 34 35 36 36 36 36 35 35 36 36 36 35 35 35 35 35 35 35
9 8 8 9 11 12 12 13 13 15 16 17 18 19 20 21 21 22 21 21 21 21 21 20 20 19 20 21 21 20 19 18 17 16 16 16 17 17 16 15 15 15 17 18 19 20 18 12 8 7 6 8 10 12 14 18 21 22 23 25 25 25 25 25 27 29 31 32 33 35 36 36 37 36 36 36 36 36 36 35 34 33 34 34 33 33
8 8 8 8 10 11 12 12 13 15 17 19 20 22 23 23 24 24 24 24 24 24 25 26 25 25 24 23 22 21 19 18 17 17 17 18 19 20 20 19 18 17 17 17 18 19 18 14 10 7 6 7 10 13 15 17 18 19 21 24 25 25 24 25 26 27 29 31 33 34 34 35 36 36 36 36 36 36 35 34 33 33 34 34 33 32
8 8 8 9 10 12 13 14 15 17 19 21 22 24 25 26 26 27 27 28 28 29 29 29 29 28 27 25 24 22 21 20 19 19 19 19 19 20 21 21 20 20 19 18 17 18 17 17 16 16 15 12 11 12 13 14 15 16 18 18 18 20 22 23 25 26 28 30 32 32 33 34 34 35 34 34 34 34 34 33 32 32 32 32 32 32
9 9 9 10 12 14 15 17 18 20 21 22 23 24 25 26 27 27 29 29 30 30 30 30 30 29 29 28 26 25 23 22 21 20 20 20 21 21 22 22 21 21 21 20 20 20 20 20 19 19 18 17 16 15 14 13 13 15 16 15 15 18 21 23 24 26 27 29 30 31 32 33 33 34 33 33 33 32 31 31 31 30 30 30 31 31
10 10 11 13 14 16 17 18 19 20 21 22 22 22 23 23 24 25 25 25 25 26 27 28 28 28 27 28 28 27 25 23 22 22 21 22 22 22 22 22 22 23 24 24 22 21 21 21 20 19 18 18 18 16 15 14 15 16 17 17 18 19 20 22 24 26 27 28 29 30 31 32 33 33 33 32 32 31 30 29 29 29 29 29 29 29
11 12 14 15 16 17 18 18 18 19 19 19 19 19 19 20 21 22 22 21 22 23 25 26 26 25 23 23 25 26 26 25 23 23 22 22 22 23 23 23 23 25 26 25 23 22 21 21 20 18 18 19 19 18 15 14 14 15 14 14 14 13 10 14 20 24 26 27 29 30 31 32 33 33 33 32 31 30 30 29 29 28 28 28 28 29
14 15 16 16 17 17 18 17 17 17 17 17 17 17 17 18 19 20 20 20 21 22 23 24 25 24 22 21 21 23 25 26 25 25 24 24 24 24 25 25 24 25 26 25 23 21 21 21 20 20 19 20 19 18 16 15 15 14 14 14 15 15 12 13 18 23 25 27 29 30 31 32 33 33 34 33 32 31 31 30 30 29 28 28 28 29
16 16 16 16 16 16 16 16 16 16 17 17 17 17 16 17 18 19 19 20 21 22 22 23 23 20 18 18 18 20 22 24 25 26 26 26 26 27 27 27 26 26 25 25 24 23 21 20 19 20 21 20 20 19 17 16 16 17 17 18 20 21 20 20 21 23 24 26 28 30 31 32 34 35 35 34 33 32 32 31 31 30 29 28 28 28
15 15 14 15 15 15 15 15 16 17 17 18 17 17 17 17 18 19 20 21 20 20 19 21 20 17 14 15 16 18 18 20 22 24 26 27 28 28 29 29 29 29 28 27 26 26 24 22 20 20 21 20 20 19 18 18 18 17 17 18 20 21 21 21 22 23 24 26 27 28 30 32 34 34 33 32 32 32 31 31 31 30 29 28 27 27
14 14 15 15 15 15 15 15 16 16 17 17 17 17 17 18 18 18 19 20 20 20 20 21 20 19 16 16 16 17 17 17 18 20 23 26 28 30 31 31 31 32 32 31 30 29 27 24 22 20 20 19 17 17 17 18 19 18 17 18 19 20 20 20 21 23 25 26 26 27 28 31 32 31 30 31 31 31 31 30 29 28 28 27 26 25
14 15 15 15 15 15 14 15 16 16 16 16 16 17 17 18 19 19 19 20 21 21 21 20 19 19 17 17 17 18 18 18 18 19 21 24 27 30 32 32 33 33 33 33 32 31 29 27 24 22 20 19 17 16 16 18 19 18 18 18 18 19 19 19 21 23 24 25 25 26 27 29 29 28 28 28 28 28 28 28 27 26 25 24 24 23
15 15 14 15 15 14 14 15 16 16 16 17 17 17 18 18 19 19 19 20 21 21 20 19 19 18 16 16 17 18 19 19 19 19 20 22 25 27 30 32 32 33 33 34 33 33 32 31 29 26 24 22 19 18 17 18 18 19 18 18 18 19 19 19 20 21 22 23 23 25 27 28 29 28 27 26 24 24 26 26 26 25 23 23 22 22
15 14 14 14 14 14 15 15 15 16 16 17 18 18 18 19 19 20 20 21 20 20 19 19 18 18 16 16 17 18 18 18 18 18 18 20 22 24 26 28 28 28 27 27 28 29 29 28 28 27 26 24 22 20 19 19 19 20 19 19 19 19 19 18 19 20 21 22 24 25 26 27 27 28 28 26 24 24 24 24 24 23 22 22 22 21
14 14 14 14 15 15 15 16 16 16 16 17 18 18 18 19 19 20 21 21 20 19 19 19 19 18 17 16 16 17 17 18 17 16 16 18 20 21 22 22 22 21 19 16 15 14 14 14 16 19 22 22 21 20 20 18 19 19 18 18 19 20 20 20 20 20 21 22 23 24 24 24 25 26 26 25 23 21 20 21 22 22 21 21 21 21
Wind_Direction
270 272 273 272 273 275 276 276 277 276 275 275 275 275 275 274 271 268 265 264 266 269 272 275 277 277 277 276 275 273 272 270 269 270 271 274 275 276 277 278 279 281 282 282 282 281 281 282 285 289 294 295 289 277 263 255 252 251 250 248 246 245 243 242 242 242 242 242 241 240 239 235 231 227 226 228 229 231 231 231 231 232 234 234 232 230
270 272 273 275 280 284 285 285 285 284 282 280 279 279 278 276 274 271 268 267 269 272 275 277 278 278 277 275 273 272 270 269 269 270 272 273 274 274 274 275 277 279 281 282 282 281 280 281 284 289 293 294 290 280 265 256 252 251 251 249 247 244 243 242 241 241 242 242 241 240 238 235 232 229 227 227 227 227 228 229 231 233 234 233 230 227
272 273 272 273 276 279 279 280 279 278 279 279 280 282 284 284 283 281 280 280 279 279 279 280 280 280 278 276 274 272 270 269 269 270 272 273 273 272 272 272 274 276 278 279 280 279 279 281 284 288 291 292 289 281 267 255 249 249 248 247 245 243 241 240 239 239 240 241 240 239 236 234 231 229 228 226 224 224 225 227 229 232 232 231 229 225
269 269 269 271 271 271 270 270 270 270 270 272 275 278 280 282 282 282 282 283 283 282 282 282 283 282 281 279 276 274 271 269 269 270 272 273 272 271 270 271 272 274 275 276 276 275 276 278 281 285 288 289 288 281 268 254 245 242 242 242 240 238 236 236 236 236 237 238 238 236 233 230 229 228 227 224 222 221 222 225 228 230 231 231 229 226
266 266 267 268 268 267 266 266 266 267 269 272 274 276 277 278 279 280 281 282 281 281 281 282 284 284 283 281 279 276 273 270 268 269 272 272 272 271 271 271 272 273 274 274 274 273 273 275 277 280 283 286 286 281 269 253 242 236 235 234 232 231 231 231 232 234 235 236 236 234 231 229 227 226 225 222 220 220 221 223 226 229 231 231 229 227
266 265 265 264 264 266 270 273 277 281 282 282 280 279 279 278 279 280 280 280 280 280 281 282 283 284 284 282 280 277 273 269 268 268 270 271 272 272 272 272 273 273 274 274 273 273 273 273 273 275 279 283 283 279 268 253 240 233 231 230 229 228 228 228 230 233 235 236 234 233 231 229 227 225 223 221 219 219 220 223 226 229 231 231 230 227
267 265 265 265 267 270 275 279 282 284 285 285 283 281 279 278 277 277 277 278 278 279 280 281 282 282 282 281 280 276 272 268 267 267 269 270 271 271 272 272 273 274 274 274 274 274 274 272 272 272 275 279 281 277 266 252 240 233 230 229 230 230 231 232 232 234 234 234 233 232 231 230 228 226 223 221 220 221 221 224 227 230 232 232 230 227
266 266 265 266 269 272 275 274 274 275 275 275 275 276 275 275 274 274 274 275 276 277 278 279 280 280 280 280 278 275 270 266 264 265 266 268 269 270 271 272 273 274 274 275 275 275 274 273 271 270 272 276 277 273 263 249 239 233 230 229 230 233 235 236 236 235 235 234 233 233 233 232 231 228 225 224 223 222 222 226 229 232 233 232 229 225
264 265 266 266 267 270 272 272 271 270 269 268 267 267 268 269 270 271 273 273 274 274 275 276 277 278 279 279 277 272 267 263 262 262 264 267 269 271 272 273 274 275 275 276 276 276 275 273 271 269 270 273 274 269 258 247 238 232 230 229 230 233 236 238 239 238 237 236 236 237 237 235 233 230 228 226 224 223 224 227 231 233 233 231 227 223
261 263 265 265 265 265 267 269 270 270 268 265 262 260 259 260 264 268 271 272 273 274 274 273 273 275 277 278 275 270 264 261 260 261 263 266 270 272 274 275 276 277 278 278 278 277 276 274 271 269 269 270 269 263 253 243 236 231 229 228 229 232 236 239 240 240 239 239 239 239 238 236 232 229 226 225 224 223 225 228 231 232 232 229 225 223
259 260 262 263 264 263 262 263 267 268 267 263 259 255 252 250 253 260 267 272 274 275 274 273 272 271 272 273 271 267 262 259 259 260 261 264 268 271 274 276 279 280 280 279 278 277 276 273 271 268 267 266 263 256 247 239 233 229 227 227 229 232 236 239 240 239 239 239 239 238 237 234 231 226 224 223 223 223 225 227 229 231 231 227 225 225
257 258 259 261 262 262 261 261 263 263 260 256 253 250 247 246 247 250 257 266 271 273 274 273 273 271 269 267 265 264 261 258 258 259 261 264 267 271 276 279 281 282 281 279 277 276 274 272 269 267 265 262 257 249 241 235 231 227 225 225 228 231 235 237 238 238 237 238 237 236 235 233 229 226 223 223 223 223 224 225 227 228 229 228 228 229
254 256 258 260 260 260 261 262 262 259 252 247 243 244 249 251 250 248 249 256 263 267 270 272 271 270 269 265 261 259 258 258 259 260 263 267 272 278 283 286 287 287 285 283 280 278 276 272 269 266 263 259 252 243 236 231 227 225 223 223 226 229 233 235 236 236 236 236 236 235 233 232 229 227 226 225 224 224 223 223 224 225 227 228 229 230
253 254 256 257 258 258 258 259 260 258 253 247 247 250 255 258 255 250 247 251 258 263 265 264 262 263 265 262 258 256 255 256 258 262 267 273 279 285 291 293 294 296 296 294 292 289 284 279 274 269 263 257 249 241 233 228 225 222 221 221 223 227 231 233 235 236 236 235 235 234 234 232 231 229 228 228 227 227 225 224 223 223 224 226 228 229
250 251 251 251 254 255 255 256 257 257 258 256 256 257 258 257 253 249 246 250 256 260 260 255 254 255 255 254 252 252 252 251 254 261 268 276 285 292 299 302 305 310 316 317 315 309 300 291 283 274 264 255 248 240 232 227 223 220 219 219 221 224 228 232 234 236 236 236 236 236 235 234 232 231 230 229 229 229 228 227 226 225 224 224 225 226
250 248 246 248 252 255 255 256 257 260 262 263 261 258 255 252 248 245 244 249 253 254 250 249 254 258 255 250 247 244 242 236 239 247 253 281 301 306 319 335 343 347 350 351 348 340 326 311 297 282 266 255 246 239 233 227 223 219 217 218 220 222 226 230 233 235 237 238 238 238 236 234 232 231 230 230 230 230 230 230 230 228 226 224 223 223
248 248 248 250 253 255 256 257 258 261 264 266 265 262 257 252 248 246 244 244 244 241 235 234 241 255 259 250 242 232 220 207 198 187 139 66 34 27 41 32 16 7 6 12 18 15 359 342 326 305 279 260 247 239 233 228 224 220 218 218 219 222 225 228 231 234 236 237 237 237 235 233 231 230 230 230 231 232 232 232 231 230 228 227 226 225
245 245 246 248 251 254 256 256 256 258 261 264 265 264 260 255 250 246 242 238 235 232 233 234 233 231 235 255 243 219 193 180 171 157 115 74 68 71 70 55 33 16 13 23 31 31 22 8 356 340 311 274 252 241 234 229 225 222 220 219 220 221 224 226 229 232 235 236 236 235 233 231 229 228 229 230 231 232 233 233 232 231 230 230 231 232
243 243 245 247 250 252 253 252 252 254 257 261 264 264 262 255 249 243 239 236 233 232 232 231 231 231 224 238 235 207 173 160 148 132 108 75 72 75 73 58 37 20 20 32 40 41 34 26 19 9 349 302 259 242 234 229 225 223 221 220 220 221 223 225 228 231 233 234 233 231 229 228 228 228 228 229 230 230 231 232 232 232 232 234 237 238
243 242 242 244 248 250 250 250 249 250 253 258 262 264 260 254 246 239 237 234 233 233 233 234 235 233 229 221 202 181 164 151 136 117 99 78 73 75 73 58 34 17 23 38 46 47 42 37 33 29 23 9 296 242 231 227 224 222 221 220 220 221 222 224 227 230 231 230 229 228 227 227 228 228 228 228 228 228 229 230 231 232 233 236 238 240
246 244 242 242 244 246 248 248 247 247 250 256 261 263 262 257 248 239 236 234 232 231 231 234 235 233 223 203 185 170 158 149 142 128 100 79 72 72 72 61 40 22 26 41 49 52 49 46 43 40 36 36 35 323 220 219 218 217 217 216 216 217 218 220 223 225 227 227 227 226 227 227 226 226 225 225 225 226 227 228 229 232 234 236 237 238
254 252 248 245 243 243 246 248 249 250 251 254 257 260 262 261 255 245 238 234 232 233 235 237 236 229 215 194 183 172 159 152 154 150 109 86 72 75 78 69 51 30 29 41 50 53 54 53 51 48 45 46 49 56 92 188 203 207 207 207 207 208 209 211 213 216 218 219 220 221 220 220 219 218 218 217 218 219 219 220 221 223 225 226 227 227
262 262 261 257 252 250 250 253 255 256 255 254 253 255 259 261 262 260 256 251 244 238 234 228 222 215 203 189 180 172 162 158 158 149 116 104 96 93 89 78 62 42 36 44 50 54 57 57 56 53 51 51 53 57 66 90 138 171 183 188 190 192 194 196 199 202 204 206 207 208 208 207 206 205 203 202 200 199 197 196 196 197 198 200 201 201
260 262 263 263 261 259 259 260 261 260 258 255 253 254 256 258 261 264 265 260 249 234 218 205 195 187 182 178 177 175 172 168 168 166 140 119 122 117 103 91 76 54 45 51 54 57 59 60 60 58 56 55 54 56 62 72 88 110 133 148 158 165 170 174 177 180 182 185 188 188 188 187 186 183 181 177 174 170 166 162 161 160 158 158 158 158
255 256 257 258 258 258 258 259 259 258 257 256 255 255 255 257 258 259 258 251 235 211 190 173 159 154 165 173 182 187 185 179 178 177 159 131 126 124 114 105 96 75 55 55 58 61 62 62 62 62 60 58 56 57 60 66 74 86 99 112 123 131 139 144 148 151 153 158 161 162 162 162 160 159 156 154 151 148 145 143 145 144 137 134 132 131
252 253 253 254 255 255 255 255 255 254 254 253 253 253 253 253 251 245 236 221 199 179 166 159 161 168 169 176 188 196 194 191 187 177 162 139 129 126 122 114 107 94 71 60 59 61 62 62 62 63 62 61 60 60 61 64 69 77 85 95 103 110 116 121 124 128 131 134 137 138 139 140 139 139 138 137 136 134 133 132 131 129 126 123 120 119
252 253 253 253 253 253 253 253 253 253 252 251 250 250 250 246 235 218 198 185 177 172 171 173 173 169 171 180 191 196 193 193 189 175 157 140 130 128 131 125 115 102 85 68 61 60 61 60 61 62 63 64 65 64 63 63 66 71 78 86 92 98 103 107 111 114 118 120 122 124 126 127 127 127 127 127 127 126 126 125 124 123 121 118 115 113
253 252 252 252 252 251 252 252 252 252 251 250 250 249 248 237 220 202 197 188 181 179 182 180 172 165 169 180 191 191 189 188 183 170 153 139 132 133 141 133 123 111 98 80 67 63 61 58 59 60 62 66 68 68 66 65 66 68 73 79 86 91 96 100 103 106 109 111 113 115 117 118 119 120 121 121 122 122 122 122 121 119 117 115 113 111
253 252 252 251 251 251 252 252 252 252 252 251 250 249 246 233 219 208 206 196 187 183 189 185 175 166 162 162 172 183 192 192 183 169 153 140 134 139 145 140 131 120 109 96 77 64 58 55 56 59 61 66 70 71 71 70 69 69 70 74 80 86 91 95 98 100 103 105 107 109 110 112 113 115 116 117 119 120 120 120 119 117 115 113 111 110
251 251 251 251 251 252 252 252 252 252 252 251 251 249 243 231 220 215 213 201 191 186 190 184 173 163 150 144 147 174 206 200 186 170 155 146 142 147 150 149 145 137 126 116 94 68 53 50 53 58 62 67 70 72 74 74 74 73 72 73 76 81 86 90 93 95 98 100 102 104 105 107 109 110 112 114 116 117 118 119 117 115 113 111 109 108
250 251 251 251 252 252 252 252 251 251 251 250 249 245 235 223 217 216 213 203 194 190 188 182 172 163 158 151 152 169 199 198 186 170 158 154 152 153 155 156 160 161 153 148 141 117 83 50 50 57 66 68 68 69 71 72 74 74 75 75 76 78 82 86 89 92 93 95 97 99 101 102 104 106 108 111 113 114 116 116 115 114 112 110 107 105
251 250 249 249 249 248 248 247 246 246 245 243 240 232 221 213 212 212 211 205 198 193 188 182 173 167 168 169 170 166 168 186 182 173 162 158 156 155 155 152 149 140 114 123 127 127 126 128 59 61 67 68 67 67 68 69 70 71 73 74 75 78 82 85 88 90 91 92 94 95 98 99 101 103 105 107 109 111 112 113 114 113 112 110 107 105
244 242 240 239 238 236 235 233 231 229 227 223 216 209 204 204 206 209 208 204 199 193 188 179 172 169 170 169 162 152 157 174 178 176 167 160 158 157 155 142 123 103 90 91 96 102 108 125 110 82 70 68 68 68 68 68 69 70 71 72 73 76 82 86 89 90 91 92 93 93 95 97 98 101 103 105 107 108 110 112 113 114 114 112 110 108
223 219 216 213 211 208 205 203 201 198 195 191 189 188 190 194 197 198 197 195 192 190 185 179 173 170 167 160 146 138 148 168 176 178 171 164 158 153 148 136 124 114 104 96 95 97 101 109 111 102 82 72 69 68 68 68 70 73 74 73 73 75 81 86 89 91 93 93 93 93 93 94 95 96 99 101 104 106 108 110 112 114 116 116 115 113
190 185 182 178 173 169 167 166 166 166 166 166 169 172 176 179 180 180 180 179 179 178 176 174 173 171 167 160 149 143 149 165 174 178 172 164 155 146 140 135 131 126 119 115 111 107 104 104 106 106 99 83 71 66 68 71 74 77 79 79 78 78 81 85 89 92 94 94 93 92 92 92 91 92 94 97 101 105 108 110 112 113 115 117 118 117
168 164 160 156 151 147 144 142 143 144 145 147 151 155 158 160 160 160 160 159 159 158 157 160 163 166 165 159 150 146 149 160 169 173 169 160 151 142 135 135 134 131 126 124 121 118 114 107 103 102 101 96 78 67 69 75 80 82 81 81 81 81 83 87 90 92 94 94 93 92 92 91 90 90 91 94 98 102 106 108 110 112 114 116 117 118
158 153 149 146 142 138 134 132 131 132 132 133 136 139 142 142 143 142 142 142 141 140 138 139 141 144 146 145 142 140 144 152 160 164 160 155 146 137 130 129 131 130 128 127 125 123 119 114 106 98 93 92 90 82 77 79 80 80 79 80 81 81 82 86 89 92 94 94 93 94 94 94 94 93 94 96 98 100 101 103 106 109 111 112 114 115
150 144 140 137 135 132 129 126 125 126 127 126 127 129 130 131 131 131 131 131 130 129 126 123 121 121 124 126 128 131 136 143 148 152 150 146 138 130 125 121 120 121 123 125 127 126 123 120 113 104 90 89 93 95 93 86 81 78 78 81 83 83 81 83 86 89 91 93 94 95 96 97 98 99 99 100 101 100 98 98 100 103 106 107 108 109
139 133 128 127 127 127 125 123 123 124 125 125 125 125 125 124 125 125 124 124 123 122 120 116 113 111 112 114 116 120 126 131 136 139 139 135 130 124 120 116 113 112 114 117 119 120 120 119 118 117 113 102 98 96 93 91 88 85 84 83 81 80 80 82 84 87 90 92 93 94 95 98 99 100 100 101 102 100 99 99 100 102 104 104 104 104
130 124 120 120 122 123 123 123 123 124 123 123 123 122 121 120 119 118 118 118 118 116 115 113 110 107 106 107 108 112 117 121 126 129 129 126 123 120 118 115 113 111 109 106 106 106 107 109 110 112 114 114 110 104 96 90 90 92 90 83 74 71 75 79 83 86 89 91 92 92 93 96 97 98 98 99 99 100 101 102 103 105 107 107 106 104
122 117 114 116 119 121 122 123 123 122 122 121 120 119 119 118 116 115 114 114 113 112 111 109 105 102 99 99 100 104 108 113 117 121 122 121 120 118 115 114 113 111 107 101 97 97 100 103 105 106 108 109 108 102 95 89 89 91 91 88 81 76 77 80 83 86 89 91 93 93 94 94 94 95 95 96 98 100 103 105 106 107 109 110 109 108
119 115 114 116 117 118 120 121 122 121 121 121 119 118 119 120 120 119 117 115 113 112 111 108 103 97 91 88 89 94 98 104 109 114 117 119 118 116 114 112 112 111 108 101 96 94 96 99 101 104 106 108 106 101 94 89 88 90 91 93 92 87 82 80 85 89 89 90 92 94 94 94 93 93 94 95 97 100 102 104 106 107 107 108 109 109
117 116 117 117 118 119 120 120 119 119 119 118 117 119 122 124 125 124 122 120 118 115 112 109 105 99 91 84 81 82 87 94 101 106 110 113 114 113 111 109 110 110 108 103 97 94 93 93 93 96 101 105 105 103 99 93 87 85 87 93 95 91 78 75 83 90 91 92 94 95 95 95 95 95 96 97 98 100 101 102 103 104 105 107 107 107
117 116 116 116 117 118 117 115 114 114 114 113 113 116 121 125 126 124 122 119 117 114 112 110 105 100 93 88 83 80 80 86 93 98 101 104 107 108 107 105 104 104 104 102 100 98 94 90 89 92 98 100 100 99 97 92 85 80 80 87 92 94 93 92 92 92 93 94 95 96 97 98 98 98 97 96 96 97 98 99 100 101 102 104 105 106
116 115 114 113 112 110 108 108 109 110 109 108 109 112 117 121 122 120 118 115 113 112 112 111 106 100 95 92 89 85 81 82 85 89 93 98 101 104 104 102 100 99 97 97 98 99 97 93 92 93 96 95 93 93 93 92 89 85 84 88 92 94 97 99 99 97 96 96 97 98 101 102 101 98 95 93 93 94 95 97 98 99 100 102 103 104
114 112 110 108 106 104 104 106 107 106 104 103 105 108 112 115 115 114 112 111 109 108 109 108 106 103 100 98 96 92 87 84 82 83 87 92 97 100 101 101 100 98 95 93 93 94 95 96 98 98 96 91 88 87 89 93 94 92 91 93 94 96 98 99 99 100 101 101 101 102 103 104 101 97 93 91 92 93 95 96 97 98 99 100 101 102
110 108 107 105 104 104 106 107 107 105 102 100 100 103 107 108 108 106 105 105 105 103 102 100 99 98 99 100 100 98 96 92 88 86 87 90 94 97 99 99 100 99 97 95 92 90 90 92 95 98 99 96 89 85 85 90 94 96 97 98 99 98 97 99 102 105 106 106 105 105 105 103 100 96 95 94 93 94 95 96 97 98 99 99 99 99
108 107 107 108 108 107 108 107 106 104 101 99 97 97 100 102 102 101 100 101 101 101 100 97 95 94 94 95 97 99 100 99 97 94 93 93 95 97 99 98 98 97 96 94 93 90 88 87 86 88 92 96 96 93 89 89 92 96 99 101 102 101 99 103 108 110 111 110 110 109 107 105 102 101 100 98 95 94 94 96 97 98 98 98 97 97
106 107 110 111 111 110 108 106 104 102 100 98 95 93 93 95 96 97 98 99 100 100 99 98 97 96 95 94 95 98 100 100 99 99 99 100 101 101 101 100 98 96 94 92 90 88 85 82 80 79 83 89 94 96 95 93 95 98 101 103 104 104 104 107 111 113 114 113 112 111 109 108 108 108 105 101 97 95 95 96 98 98 98 97 96 95
103 106 109 110 108 106 105 102 99 97 96 96 95 92 90 90 91 93 95 96 96 95 95 96 97 98 97 97 98 99 101 101 101 101 102 105 107 107 106 105 103 100 96 92 89 86 82 77 73 72 75 82 89 94 96 98 99 100 100 101 104 106 106 107 110 113 114 113 112 112 110 110 109 109 106 103 100 98 96 96 97 98 99 98 97 95
99 102 103 103 101 99 97 96 94 93 92 92 92 92 90 89 89 91 92 91 90 90 89 91 95 97 99 98 98 99 101 103 102 102 104 108 111 111 111 111 110 108 104 99 94 90 87 79 71 66 64 70 81 92 99 102 102 99 96 98 102 106 106 107 109 112 113 112 113 113 112 110 109 109 108 106 104 100 97 95 96 99 102 102 101 99
Height
684 682 682 681 680 679 676 675 675 673 671 669 668 667 666 665 664 663 662 662 662 661 661 660 660 659 659 659 659 659 659 659 659 659 658 658 657 656 655 654 653 652 651 651 650 650 650 650 650 649 649 648 647 646 645 645 646 647 649 650 652 655 657 660 663 665 668 670 673 675 678 680 682 683 685 687 691 695 699 702 703 705 706 707 709 710
682 681 680 679 679 677 674 673 673 673 670 668 667 665 665 663 662 661 660 660 660 660 659 659 658 658 658 657 657 657 656 656 656 656 655 655 654 653 652 651 650 649 648 647 647 647 646 646 646 645 645 645 644 644 643 642 642 643 644 646 648 650 652 655 659 661 664 666 669 671 674 676 679 680 681 682 685 690 695 698 700 701 703 704 705 707
680 679 678 677 677 676 674 672 671 671 669 667 665 664 663 662 660 659 659 658 658 658 658 657 657 656 656 655 655 655 654 653 653 653 653 652 651 650 649 648 647 646 645 644 644 643 643 642 642 642 642 641 641 641 640 639 639 640 640 642 644 646 648 651 655 658 660 663 665 667 669 672 675 676 677 678 681 685 690 693 696 698 699 701 702 703
679 677 675 675 675 674 672 670 669 668 667 665 664 662 661 660 658 657 657 657 656 656 655 655 655 654 654 653 652 651 650 650 650 650 650 649 647 646 646 645 644 643 642 641 640 640 640 639 639 639 639 639 638 638 637 636 636 637 638 640 641 643 645 648 651 654 657 660 662 664 665 668 670 672 674 675 677 680 685 689 692 694 695 697 699 700
676 675 673 673 672 670 668 667 666 665 664 663 661 660 659 657 656 655 655 654 654 653 652 652 652 652 651 650 649 648 647 646 646 646 646 645 644 643 642 642 641 640 638 637 637 636 636 636 635 635 635 635 635 635 634 634 634 635 636 638 640 641 643 646 649 651 654 656 658 660 662 664 666 668 670 672 674 677 681 684 687 690 692 694 696 697
673 672 671 670 669 666 665 665 664 662 662 660 659 658 656 655 654 653 652 651 650 650 649 649 649 648 648 646 645 644 643 643 643 643 643 642 641 640 640 639 638 636 635 634 633 633 633 632 632 632 632 632 632 632 631 631 631 632 633 635 637 640 642 644 646 649 651 653 655 657 659 660 662 665 666 668 671 674 677 680 683 686 689 691 692 694
670 670 669 668 666 665 664 663 662 661 661 660 658 656 654 653 652 650 649 648 647 647 646 645 645 645 644 643 641 640 640 640 640 640 640 639 638 637 637 636 635 633 632 631 630 629 629 629 629 629 629 629 629 628 628 628 628 628 630 632 634 637 640 642 645 647 649 650 652 654 655 657 659 661 663 665 668 671 673 677 680 683 685 687 689 690
668 667 667 666 664 663 662 661 660 660 660 659 657 655 652 650 649 647 646 645 645 644 643 642 641 640 640 639 638 638 637 637 638 638 638 637 636 635 634 633 631 630 628 627 626 626 625 625 625 625 625 625 625 625 625 624 624 625 625 627 630 633 636 639 642 644 646 647 649 650 652 654 655 658 660 662 665 668 670 673 676 679 681 684 685 687
666 664 664 663 663 662 660 658 657 657 658 657 655 653 650 648 646 645 644 642 641 640 640 640 638 637 636 636 636 636 636 636 636 636 636 635 634 632 631 630 628 626 625 624 623 622 622 622 622 621 621 620 620 620 620 621 621 621 621 622 625 628 632 635 638 641 643 645 646 647 648 650 652 654 657 660 662 665 667 670 673 675 678 680 682 685
664 663 661 661 660 660 658 655 654 654 655 654 652 650 649 647 645 643 642 640 638 637 637 637 636 635 634 634 634 634 634 634 634 634 634 632 631 630 628 626 625 623 622 620 620 619 618 618 618 618 617 616 615 616 616 617 617 617 617 618 620 624 628 632 635 638 640 641 643 644 645 646 648 651 654 656 659 661 664 667 670 672 674 676 679 681
661 660 660 658 657 656 655 653 651 651 651 650 649 647 645 644 643 642 641 638 636 635 635 634 633 633 632 631 631 632 632 632 631 631 630 630 628 627 625 624 622 620 619 617 616 615 615 615 615 614 612 611 610 611 612 613 613 612 612 613 616 620 625 629 632 635 636 639 640 640 641 642 645 647 650 653 655 658 660 663 666 669 671 673 675 677
658 657 657 655 654 653 652 650 649 648 648 647 645 643 642 641 641 641 640 637 635 634 633 632 631 630 630 630 629 629 629 629 628 627 626 625 625 623 622 620 619 617 616 615 613 612 612 612 611 610 608 606 605 605 607 608 609 608 607 608 612 617 622 625 629 631 634 635 637 637 639 640 642 644 647 650 652 655 657 660 663 666 668 670 672 674
655 655 654 653 651 650 649 647 646 645 644 643 642 640 639 639 640 640 639 636 635 633 632 631 630 628 628 628 628 627 626 626 625 624 623 622 621 620 619 617 615 614 613 612 610 609 608 608 607 605 603 601 600 600 601 603 604 603 603 604 608 614 619 622 625 628 630 632 634 635 636 637 639 642 645 647 650 652 655 657 660 662 664 666 669 671
652 652 651 650 648 647 645 645 643 642 640 639 639 638 637 638 638 637 636 635 633 632 632 630 629 627 626 626 625 625 624 623 623 622 621 620 618 617 616 615 613 612 612 610 607 605 605 605 604 602 599 597 596 596 596 598 599 599 598 600 605 610 615 619 622 624 626 628 630 632 634 635 637 640 642 645 647 650 652 655 656 658 660 662 665 667
650 649 648 646 645 643 642 642 640 639 637 637 637 636 636 636 635 635 634 633 631 631 630 630 628 626 625 625 624 623 622 621 621 621 620 618 616 615 615 614 613 612 611 608 605 602 601 603 602 600 596 594 593 592 592 593 594 594 595 597 601 606 611 615 618 621 623 625 627 630 631 633 635 638 640 643 645 648 650 652 653 655 656 658 660 663
646 646 645 643 641 640 639 639 638 636 635 635 635 635 634 633 633 632 632 631 630 629 629 629 628 626 625 623 622 622 621 620 620 619 618 616 615 615 614 613 612 611 610 606 602 599 599 601 600 598 594 591 590 589 589 589 589 590 591 594 598 603 607 611 615 617 620 622 625 627 629 631 633 635 638 641 643 645 647 649 651 652 653 655 656 659
643 642 641 640 638 637 636 636 636 635 634 634 633 633 632 631 630 630 629 628 628 628 628 628 627 626 624 622 621 620 619 619 618 617 616 615 615 614 614 613 612 611 609 605 600 597 598 600 600 596 592 589 587 586 586 586 586 587 589 592 595 599 603 607 611 614 617 619 622 624 626 628 630 633 635 638 641 643 645 647 648 650 651 652 654 656
639 638 637 636 635 634 633 633 633 633 632 632 631 630 630 629 628 628 627 626 626 626 625 625 625 624 622 620 619 618 617 617 617 616 616 615 615 614 613 613 613 612 610 604 599 597 600 601 600 596 591 587 585 584 583 584 584 585 586 590 593 596 600 604 608 611 614 616 619 621 624 626 628 630 632 635 638 640 642 643 645 647 648 650 652 654
634 634 634 632 631 630 630 630 630 630 630 630 629 629 628 626 625 625 624 624 624 623 623 623 622 620 619 618 617 616 615 616 616 615 615 615 615 614 613 613 614 613 610 605 600 599 601 602 600 595 590 585 583 581 581 582 582 583 585 587 590 594 597 601 605 609 612 614 616 619 621 623 625 627 630 632 635 637 638 640 641 643 645 647 649 651
630 629 628 628 628 627 627 626 627 627 628 628 628 627 625 624 623 622 621 621 621 621 620 620 619 618 617 616 616 615 615 615 615 615 615 615 615 614 614 614 615 615 612 606 602 601 603 602 599 594 589 585 582 580 580 580 581 582 583 585 588 591 595 599 602 606 609 612 614 616 618 621 623 625 628 630 632 634 635 637 638 640 641 644 646 649
625 624 623 624 624 624 622 622 623 624 625 626 626 625 623 622 620 620 619 619 619 619 619 618 617 616 616 615 615 615 615 615 615 615 615 615 615 615 614 615 616 616 613 607 604 604 604 602 599 594 590 585 582 581 580 580 581 581 582 584 586 590 593 596 600 604 607 610 612 614 616 619 621 624 626 628 630 631 633 634 635 637 639 641 643 645
621 620 619 620 620 620 619 619 620 621 622 623 623 622 621 620 619 617 617 617 617 617 616 616 616 615 615 615 615 615 614 614 615 615 615 615 615 616 615 615 616 616 614 609 606 605 605 602 598 595 591 588 585 583 581 581 581 581 582 584 585 588 591 595 598 601 605 607 610 612 615 617 619 621 624 625 627 629 630 632 633 635 636 639 641 643
619 617 617 617 617 617 616 617 618 619 620 620 620 619 619 619 617 616 615 615 615 615 615 615 615 615 615 614 614 614 614 614 615 615 615 615 616 616 615 616 617 617 615 611 608 607 605 601 598 595 593 590 588 586 585 584 583 583 583 583 585 586 589 592 595 599 602 605 607 610 612 615 617 619 621 623 625 626 627 629 630 632 634 637 639 641
617 616 615 615 615 615 615 615 616 616 617 617 616 616 616 616 616 615 615 614 614 613 613 614 614 614 614 614 614 614 614 614 615 615 615 615 616 616 616 616 617 617 616 613 610 608 605 601 598 596 595 594 592 591 590 589 588 586 585 585 585 586 587 590 594 597 600 603 606 608 611 613 615 617 619 620 622 624 625 627 628 630 633 635 638 640
614 613 612 612 613 613 613 613 614 614 614 614 614 614 614 614 614 614 614 613 612 612 612 613 613 614 614 614 614 614 614 614 615 615 614 614 615 616 616 616 617 618 617 615 612 609 605 601 599 598 598 597 597 597 597 596 595 592 590 589 588 588 589 591 594 597 600 603 605 608 610 612 614 616 617 619 620 621 623 624 626 629 632 635 638 640
610 610 609 609 610 610 610 610 610 610 610 611 611 611 611 611 611 611 610 610 609 610 610 611 612 612 613 613 614 614 614 614 615 614 614 613 614 616 616 617 617 618 618 617 614 610 605 603 601 601 601 601 602 602 602 602 600 599 597 595 594 593 592 594 595 598 602 605 607 610 611 613 614 615 616 617 618 620 621 623 625 628 630 635 638 641
607 606 606 606 606 606 606 606 606 606 607 607 607 608 609 609 608 608 607 606 606 607 608 609 610 611 612 613 613 613 614 614 614 614 613 612 613 615 617 617 617 618 618 618 615 611 607 605 604 605 605 605 606 606 606 606 606 605 604 602 600 598 597 598 600 602 605 608 610 612 614 615 615 616 616 617 618 620 621 623 625 628 630 635 639 642
603 603 603 603 603 602 602 602 602 602 602 603 604 605 606 606 605 604 603 603 604 605 605 606 607 609 610 611 612 612 613 614 614 614 613 612 612 614 616 616 617 617 617 618 616 612 608 607 607 608 609 609 609 609 609 610 610 610 609 607 605 603 602 603 605 607 610 612 614 615 616 617 617 618 618 618 619 620 622 624 626 629 631 635 639 643
599 599 599 599 599 598 598 598 598 598 598 598 599 601 602 602 600 599 599 600 602 603 603 603 604 605 608 610 611 612 613 613 613 613 612 612 612 613 614 615 615 616 615 616 615 613 610 611 611 612 613 613 612 612 612 612 613 614 615 613 611 609 608 608 610 611 613 615 616 618 619 620 620 620 620 620 620 621 622 624 626 629 632 635 639 643
595 595 595 595 594 594 594 594 593 593 593 594 595 596 598 597 596 595 596 597 599 600 600 601 601 603 605 609 611 613 613 612 611 611 611 611 612 613 613 613 614 614 614 614 614 615 615 616 616 616 616 616 615 615 615 615 615 616 618 618 616 615 613 613 613 614 615 617 619 620 621 621 622 621 621 621 621 622 623 624 626 628 632 636 640 643
592 592 591 590 590 590 590 590 589 589 589 590 591 592 593 592 592 593 594 594 595 596 597 598 600 601 603 605 608 610 610 610 610 610 610 610 610 611 611 611 612 612 611 611 611 614 619 621 622 620 620 619 619 618 618 617 617 618 619 619 619 619 618 617 617 617 619 620 621 622 623 623 624 624 624 624 624 624 624 625 626 628 632 635 640 644
588 588 587 587 586 586 586 585 585 585 585 586 587 588 588 589 590 590 591 591 592 593 594 595 597 598 600 601 602 604 606 607 608 608 608 609 609 610 610 610 610 610 610 609 608 609 615 622 625 624 622 621 621 621 620 620 619 619 619 619 620 621 621 621 620 621 622 623 624 625 625 625 626 627 627 627 626 626 626 626 628 630 632 636 640 645
585 585 585 584 583 583 583 582 582 582 583 583 584 585 585 586 588 589 589 590 590 591 592 593 595 597 598 599 600 601 603 605 607 607 608 608 609 609 610 610 610 610 610 609 608 608 611 618 623 624 624 623 623 623 623 622 621 620 620 621 622 623 624 624 624 624 624 625 626 627 628 628 629 630 630 629 629 629 629 630 631 633 635 638 642 647
583 583 582 581 581 580 580 580 580 580 580 581 581 582 584 585 586 588 588 589 590 590 591 592 593 595 596 598 600 602 604 605 606 607 607 607 608 608 609 609 609 609 609 610 611 612 614 617 620 622 624 625 625 625 625 625 624 623 623 623 625 626 627 627 626 626 626 626 627 629 630 631 632 632 632 631 631 631 632 634 635 638 640 642 645 649
582 581 580 580 579 579 579 579 579 579 580 580 580 581 583 584 585 586 587 588 589 590 590 591 592 593 595 596 598 600 603 605 606 606 607 607 607 608 609 609 609 609 609 610 611 614 616 619 620 621 623 625 627 627 627 627 627 626 626 627 629 630 631 630 630 629 629 628 629 630 631 632 633 633 634 634 634 635 636 637 640 642 644 646 648 651
580 580 579 579 578 578 578 578 579 579 579 580 580 581 582 583 584 585 586 587 588 589 590 591 593 594 595 595 596 598 601 603 605 606 607 607 607 608 608 609 609 609 609 610 611 613 616 620 621 622 622 625 628 630 631 631 630 630 630 632 633 635 635 635 634 633 631 630 630 631 631 632 633 635 636 637 638 638 640 641 643 645 647 650 651 654
579 579 578 578 578 578 578 578 579 579 580 580 581 582 582 583 584 585 585 586 587 589 590 591 593 595 595 596 597 599 601 603 605 606 607 608 608 608 608 609 610 610 609 609 610 612 615 618 621 623 624 626 629 633 635 635 634 634 635 637 638 639 639 639 638 636 634 633 632 632 633 633 634 636 638 639 640 641 643 645 648 649 651 653 655 657
578 578 578 578 578 578 578 578 579 579 580 580 581 582 582 583 584 585 585 586 587 589 590 592 594 595 597 598 599 600 602 604 605 607 608 609 609 608 608 609 610 611 610 610 610 611 612 616 620 624 627 629 631 634 636 637 637 638 640 640 641 641 642 641 640 638 636 635 635 634 635 635 636 637 639 641 642 644 646 649 651 653 655 656 659 661
578 578 578 578 578 578 578 579 579 580 580 580 581 582 582 583 584 585 586 587 588 590 591 593 595 596 598 599 600 602 603 605 606 608 609 610 610 609 608 609 610 612 613 612 612 612 612 614 617 622 626 630 634 635 637 638 639 640 642 642 643 644 644 644 642 641 639 638 637 637 637 638 639 640 641 643 644 645 648 650 653 655 656 658 660 663
577 577 577 578 578 578 578 579 579 580 580 581 581 582 583 584 585 586 587 588 589 591 592 593 595 597 598 600 601 603 604 606 607 608 609 610 610 610 610 610 611 612 614 614 614 614 614 616 618 621 625 629 633 636 638 639 640 641 642 643 645 647 647 646 645 643 642 641 640 640 641 641 642 643 644 645 646 648 650 652 655 657 658 660 661 664
577 577 578 578 578 578 579 579 580 580 581 581 582 583 584 585 585 587 588 589 591 592 593 594 595 597 599 600 602 604 605 607 608 609 610 610 611 611 611 611 612 613 614 615 616 616 616 618 620 624 626 629 632 635 638 640 642 643 643 645 647 649 649 648 647 646 645 644 644 644 644 644 645 646 647 648 650 651 653 655 657 659 660 662 663 665
577 577 578 578 578 579 579 580 580 581 582 582 583 584 585 585 586 587 589 590 591 593 593 594 596 598 600 602 604 605 606 608 609 610 611 612 612 613 613 613 614 614 614 615 617 619 620 621 623 626 629 631 633 636 639 642 644 645 645 647 648 650 650 650 650 649 648 648 648 647 647 647 648 649 650 651 652 654 656 657 659 661 662 664 666 667
577 578 578 579 579 580 580 581 582 582 583 583 584 585 586 587 588 588 589 590 591 592 593 595 596 598 600 603 605 607 609 610 611 612 612 613 614 614 615 615 615 616 616 616 619 621 623 624 626 629 631 633 634 637 640 643 645 646 648 649 649 650 652 654 653 652 651 651 651 650 650 650 650 651 652 653 655 657 658 660 661 663 665 666 668 670
577 578 579 580 580 581 581 582 583 583 584 585 585 586 588 589 589 590 590 590 591 592 594 595 597 598 601 604 607 609 611 612 613 613 614 615 616 616 616 617 618 619 619 619 620 623 625 627 630 632 634 635 637 639 641 644 646 648 650 650 650 651 654 656 656 655 655 655 654 654 653 652 652 653 654 655 657 659 660 662 664 665 667 669 670 672
578 579 580 580 581 581 582 583 584 585 585 586 587 588 590 590 590 591 591 591 591 593 595 596 597 599 602 605 608 610 612 614 615 615 616 617 617 618 618 619 620 621 622 622 624 625 627 630 633 635 637 638 639 641 643 645 648 650 652 653 653 654 656 657 658 658 658 657 657 657 656 655 654 654 655 658 660 662 663 665 666 668 670 671 673 674
579 579 580 581 581 582 583 584 585 586 587 588 589 590 591 592 592 592 591 591 592 594 596 596 597 600 603 607 609 611 613 615 617 618 619 619 620 620 620 621 622 623 624 625 627 628 630 632 635 637 639 640 642 644 646 648 649 652 654 655 656 657 658 660 660 660 660 660 660 659 658 657 655 655 657 660 663 665 666 668 669 670 672 674 675 676
579 580 581 582 582 584 585 586 587 588 588 590 590 592 592 593 593 593 593 593 594 595 597 598 599 601 605 608 610 612 614 617 619 620 621 622 622 623 624 624 625 626 626 628 630 631 634 636 638 640 640 642 645 648 650 650 652 654 656 657 658 659 660 662 663 663 662 662 661 661 660 659 658 658 660 663 665 667 669 671 672 673 675 676 677 678
580 581 582 583 585 586 587 588 588 589 590 591 592 593 593 594 593 594 594 595 595 596 598 600 602 604 607 610 612 614 615 618 620 622 623 624 625 626 626 627 628 629 630 631 632 634 636 639 641 642 644 645 647 650 652 654 655 656 658 659 660 661 663 664 665 665 665 664 663 663 662 661 660 661 663 665 667 670 672 673 675 676 677 678 679 680
582 583 584 585 586 587 588 589 590 590 590 591 592 594 594 595 595 595 596 597 598 599 600 602 604 606 609 612 614 616 617 620 621 623 625 626 627 628 629 630 630 631 633 634 636 638 640 642 644 646 647 648 650 652 655 656 657 658 660 661 662 663 664 666 666 667 666 666 665 665 664 663 663 663 664 666 669 671 674 675 677 678 679 680 681 682
584 585 586 587 588 588 589 590 590 591 591 592 593 594 595 596 596 597 598 599 600 601 603 605 606 608 611 614 616 618 620 621 623 625 627 628 629 630 630 631 632 633 635 637 639 640 642 645 648 650 652 653 654 655 657 658 660 660 661 663 663 664 665 666 667 668 668 667 667 667 666 666 666 666 666 667 670 673 675 677 679 680 681 682 683 684
586 587 587 588 588 589 589 590 590 591 592 593 594 595 596 598 599 600 600 601 603 604 606 608 609 611 614 616 619 620 621 623 625 626 628 630 630 631 632 633 633 634 635 638 640 642 645 647 651 654 656 658 659 659 660 661 661 662 663 664 665 665 665 667 668 668 669 669 669 669 669 669 669 669 668 669 671 674 676 678 680 682 683 684 685 685